Location: Gull Harbor
(47.1000°N, 122.9000°W)
Time: 03:23:44
(UTC-07:00)

Tianhe-1 - Visible Passes

Search period start: 13 May 2021 00:00
Search period end: 23 May 2021 00:00
Orbit: 351 x 385 km, 41.5° (Epoch: 11 May)

Date Brightness Start Highest point End Pass type
(mag) Time Alt. Az. Time Alt. Az. Time Alt. Az.
14 May 3.2 21:26:01 10° S 21:27:00 11° SSE 21:27:54 10° SE visible
15 May 2.5 21:55:38 10° SSW 21:58:01 20° SSE 21:58:38 19° SSE visible
16 May 2.1 22:26:24 10° SW 22:28:59 27° S 22:28:59 27° S visible
17 May 2.4 21:21:43 10° SW 21:24:15 23° SSE 21:26:49 10° ESE visible
17 May 2.8 22:57:32 10° WSW 22:59:04 21° SW 22:59:04 21° SW visible
18 May 2.1 21:52:37 10° WSW 21:55:22 28° S 21:57:07 17° SE visible
18 May 3.9 23:28:57 10° WSW 23:28:59 10° WSW 23:28:59 10° WSW visible
19 May 2.2 22:23:50 10° WSW 22:26:29 26° S 22:26:54 25° S visible
20 May 2.2 21:18:50 10° WSW 21:21:33 28° S 21:24:17 10° ESE visible
20 May 3.2 22:55:22 10° WSW 22:56:37 15° SW 22:56:37 15° SW visible
21 May 2.5 21:50:06 10° WSW 21:52:37 23° SSW 21:54:25 14° SSE visible
22 May 3.2 22:21:53 10° SW 22:23:34 14° SSW 22:24:03 13° SSW visible
